Weather Roundup
Issued by NWS

Home | Current Version | Previous Version | Text Only | Print | Product List | Glossary On
Versions: 1 2 3 4 5 6 7 8 9 10 11 12 13 14 15 16 17 18 19 20 21 22 23 24 25 26 27 28 29 30 31 32 33 34 35 36 37 38 39 40 41 42 43 44 45 46 47 48 49 50
000
NZUS93 KARX 242159
HRRWXR

CURRENT HOURLY OBSERVATIONS ACROSS
MUCH OF THE UPPER MISSISSIPPI VALLEY
NATIONAL WEATHER SERVICE LA CROSSE WI
500 PM CDT THU APR 24 2014


...SOUTHEAST MINNESOTA...


CITY           SKY/WX    TMP DP  RH WIND       PRES   REMARKS
ROCHESTER      CLOUDY    47  43  86 W9        29.67R FOG
ROCHESTER/MAYO CLOUDY    46  44  93 W6        29.66R
WINONA         CLOUDY    43  43 100 SE5       29.67S FOG
AUSTIN         CLOUDY    48  45  87 NW10      29.67R
ALBERT LEA     CLOUDY    48  45  87 W13       29.67R
DODGE CENTER   CLOUDY    48  45  87 W9        29.66R
PRESTON        CLOUDY    47  46  99 SW5       29.65S FOG
OWATONNA       PTSUNNY   46  43  87 W13       29.68S
FARIBAULT      CLOUDY    48  43  81 W8        29.67F
$$

...ELSEWHERE IN MINNESOTA...


CITY           SKY/WX    TMP DP  RH WIND       PRES   REMARKS
MINNEAPOLIS    CLOUDY    44  42  93 W5        29.68S
INTNL FALLS    LGT RAIN  35  33  92 E9        29.77F FOG     WCI  28
DULUTH         SNOW      33  31  92 E20       29.72F VSB 1/2 WCI  21
RED WING       CLOUDY    45  43  93 CALM      29.67R
REDWOOD FALLS  MOSUNNY   53  43  68 NW9G20    29.70R
MANKATO        CLOUDY    46  41  81 NW10      29.70S
WORTHINGTON    MOSUNNY   55  37  50 N15G22    29.74S
FAIRMONT       PTSUNNY   52  41  66 NW16      29.72S
$$

...SOUTHWEST WISCONSIN...


CITY           SKY/WX    TMP DP  RH WIND       PRES   REMARKS
LA CROSSE      CLOUDY    47  46  97 CALM      29.66S FOG
PRAIRIE DU CHI DRIZZLE   51  49  92 CALM      29.66S
BOSCOBEL       LGT RAIN  53  48  83 VRB3      29.67S
LONE ROCK      NOT AVBL
PLATTEVILLE    CLOUDY    52  47  85 SE14      29.68F
FORT MC COY    DRIZZLE   45  44  97 E5        29.69S
CAMP DOUGLAS   LGT RAIN  45  45 100 E10       29.67F FOG
VIROQUA        CLOUDY    47  47 100 S7        29.67R
WIS DELLS      RAIN      50  45  81 SE12G18   29.69F
$$

...ELSEWHERE IN WISCONSIN...


CITY           SKY/WX    TMP DP  RH WIND       PRES   REMARKS
MILWAUKEE      CLOUDY    49  30  48 SE18G29   29.79F
MADISON        LGT RAIN  52  47  83 SE12      29.72F
GREEN BAY      LGT RAIN  42  38  85 E12       29.83F FOG
EAU CLAIRE     LGT RAIN  43  42  97 VRB6      29.67F FOG
BLACK RVR FLS  DRIZZLE   44  44 100 SE6       29.68S
MEDFORD        LGT RAIN  39  38  97 SE13G24   29.71F WCI  32
WAUSAU         LGT RAIN  40  40 100 SE20G28   29.73F FOG     WCI  30
WIS RAPIDS     LGT RAIN  43  40  89 E13G21    29.72F FOG
MARSHFIELD     LGT RAIN  42  39  89 SE16G24   29.70F FOG
RICE LAKE      DRIZZLE   42  40  95 E7        29.70F
$$

...NORTHEAST IOWA...


CITY           SKY/WX    TMP DP  RH WIND       PRES   REMARKS
WATERLOO       LGT RAIN  51  50  96 S6        29.66R FOG
DUBUQUE        CLOUDY    52  47  83 SE14      29.64F
DECORAH        CLOUDY    48  48 100 S5        29.65S FOG
MASON CITY     CLOUDY    50  44  80 NW16      29.69R
CHARLES CITY   CLOUDY    50  48  93 VRB5      29.66S FOG
OELWEIN        RAIN     N/A N/A N/A SW7       29.67S VSB 1
$$

...ELSEWHERE IN IOWA...


CITY           SKY/WX    TMP DP  RH WIND       PRES   REMARKS
DES MOINES     LGT RAIN  53  47  79 N13G22    29.68F
IOWA CITY      RAIN      54  53  97 SW9       29.69R FOG
FORT DODGE     CLOUDY    55  45  67 N10G18    29.71S
MARSHALLTOWN   CLOUDY    51  48  89 NW14      29.67R
CEDAR RAPIDS   RAIN      52  50  93 W6        29.66R FOG
$$

...NORTHERN ILLINOIS...


CITY           SKY/WX    TMP DP  RH WIND       PRES   REMARKS
CHICAGO-OHARE  CLOUDY    64  30  27 SE24      29.74F
DUPAGE         CLOUDY    64  33  31 SE21G28   29.72F
CHICAGO-MIDWAY CLOUDY    63  30  28 SE15G35   29.74F
MOLINE         CLOUDY    60  49  66 SW3       29.66R
ROCKFORD       LGT RAIN  63  40  42 SE13      29.70F
STERLING       CLOUDY    57  52  82 S3        29.67R
PEORIA         CLOUDY    71  44  37 S12       29.63F
$$

NOTE: "FAIR" INDICATES FEW OR NO CLOUDS BELOW 12,000 FEET WITH NO
SIGNIFICANT WEATHER AND/OR OBSTRUCTIONS TO VISIBILITY. WIND
SPEEDS ARE IN MILES-PER-HOUR.



USA.gov is the U.S. government's official web portal to all federal, state and local government web resources and services.